FENGYUN 1C DEB

Satellite information

Favourite Embed

Satellite Type and Status

DEBRISIN ORBIT

Key statistics

Satellite FENGYUN 1C DEB at a glance.

Uptime

9659

Days in orbit

Revolutions

≈ 14.1

Per day

Orbit

SSO

Sun Synchronous Orbit

Inclination

98.8

Latest

Satellite identification and parameters

Extended collection of information and parameters for FENGYUN 1C DEB.

Object identification

Identified? True

Debris? True

Object name: FENGYUN 1C DEB

International designator: 1999-025BLV

Object number (NORAD): 31239

Object ID (CCSDS): 31239

Country: PEOPLES REPUBLIC OF CHINA (PRC)

Current information (Y/N): Y

RCS size: SMALL

Orbital parameters

Period: 102.146 minutes

Inclination: 98.7573 deg

SMA: 7238.37 km

Apoapsis: 896.309 km

Periapsis: 824.161 km

RAAN: 288.3971 deg

Eccentricy: 0.00498376

Argument of periapsis: 355.1633 deg

Mean anomaly: 61.5366 deg

Mean motion: 14.09748372 rev/day

Mean motion (dot): 0.0000104 rev/day2

B* drag term: 0.00060953845 1/REarth

Two-line elements (TLE)

Creation date: Oct. 19, 2025, 2:20 a.m.

Reference frame: TEME

Reference center: EARTH

Epoch: Oct. 18, 2025, 11:36 p.m. UTC

TLE line 0: 0 FENGYUN 1C DEB

TLE line 1: 1 31239U 99025BLV 25291.98334017 .00001040 00000-0 60954-3 0 9999

TLE line 2: 2 31239 98.7573 288.3971 0049838 355.1633 61.5366 14.09748372952407

Live tracking on map

Real-time ground track for satellite FENGYUN 1C DEB.

In-orbit conjunctions

A list of the most updated potential collisions computed for object FENGYUN 1C DEB.

Target Orbit TCA Probability of collision Miss distance Type
CZ-4 DEB SSO 2025-06-09 02:37:35 0.0002119871 42.0 (m) DEBRIS
METEOR 1-17 DEB LEO 2024-11-14 04:39:05 0.0001183057 842.0 (m) DEBRIS

Associated space launch

Chinese polar orbiting meteorological satellite

FENGYUN 1C DEB was lifted into orbit during the mission ‘Long March 4B | Feng Yun 1C’, on board a Long March 4B space rocket.

The launch took place on May 10, 1999, 1:33 a.m. from Launch Complex 7.

For more information about the launch, click the button.

Launch to space Long March 4B | Feng Yun 1C
Long March 4B | Feng Yun 1C

Agency: N/A

Status: Launch Successful

Launch date: May 10, 1999, 1:33 a.m. UTC

Rocket: Long March 4B

Launch pad: Launch Complex 7

Location: Taiyuan Satellite Launch Center, People's Republic of China

...

Latest news about this satellite

There are no fresh news available about this satellite. Check back as we update our databases every day.


Newsletter sign-up

Weekly statistics, charts and insights to help you stay on top of the space industry.